Miscellaneous Local Product
Issued by NWS Hastings, NE

Home | Current Version | Previous Version | Graphics & Text | Print | Product List | Glossary On
Versions: 1 2 3 4 5 6 7 8 9 10 11 12 13 14 15 16 17 18 19 20 21 22 23 24 25 26 27 28 29 30 31 32 33 34 35 36 37 38 39 40 41 42 43 44 45 46 47 48 49 50
578
AXUS43 KGID 231602
MISGRI

GID CWA HOURLY WEATHER ROUNDUP
NATIONAL WEATHER SERVICE HASTINGS NE
1100 AM CDT SUN APR 23 2017

NOTE: "FAIR" INDICATES FEW OR NO CLOUDS BELOW 12,000 FEET WITH NO
SIGNIFICANT WEATHER AND/OR OBSTRUCTIONS TO VISIBILITY.

...SOUTH CENTRAL NEBRASKA...

CITY           SKY/WX    TMP DP  RH WIND       PRES   REMARKS
GRAND ISLAND   SUNNY     62  29  28 S16G25    30.14S
HASTINGS       SUNNY     61  27  27 S18G24    30.14F
KEARNEY        SUNNY     61  27  27 SW17G26   30.13F
ORD            SUNNY     60  29  30 S20G30    30.07F
YORK           SUNNY     63  28  27 SW14G20   30.14F
AURORA         SUNNY     63  28  26 SW15G24   30.13S
LEXINGTON      SUNNY     60  28  30 SW20G25   30.10F
HOLDREGE       SUNNY     59  29  31 SW17G26   30.13S
HEBRON         SUNNY     63  28  26 S10G16    30.15F

...NEBRASKA PANHANDLE...

CITY           SKY/WX    TMP DP  RH WIND       PRES   REMARKS
CHADRON        MOSUNNY   61  36  39 S20       29.84F
ALLIANCE       SUNNY     56  36  47 S23       29.90F
SCOTTSBLUFF    CLOUDY    57  36  45 MISG      29.90F
SIDNEY         CLOUDY    53  37  54 S23G30    29.97F

...WESTERN AND NORTH CENTRAL NEBRASKA...

CITY           SKY/WX    TMP DP  RH WIND       PRES   REMARKS
VALENTINE      MOSUNNY   64  29  26 S24G37    29.92F
AINSWORTH      SUNNY     59  34  38 S24G32    29.96F
ONEILL         SUNNY     61  26  25 S23G36    30.02F
BROKEN BOW     SUNNY     59  28  30 S26G36    30.06F
IMPERIAL       SUNNY     56  34  43 S23G31    30.04F
NORTH PLATTE   SUNNY     59  31  34 SW20G26   30.04F
MCCOOK         SUNNY     60  33  36 S22G30    30.09F

...EASTERN NEBRASKA...

CITY           SKY/WX    TMP DP  RH WIND       PRES   REMARKS
NORFOLK        SUNNY     63  30  28 SW21G28   30.08F
SO SIOUX CITY  SUNNY     65  33  30 SW17G24   30.09F
TEKAMAH        SUNNY     65  35  33 SW16      30.12F
COLUMBUS       SUNNY     63  34  34 SW12G18   30.13F
ALBION         SUNNY     62  30  29 SW24      30.10F
OMAHA EPPLEY   MOSUNNY   64  29  26 SW10      30.14F
OFFUTT AFB     SUNNY     64  35  34 S8        30.13F
MILLARD        SUNNY     65  33  30 W9        30.14S
LINCOLN        SUNNY     64  30  27 S12       30.15F
NEBRASKA CITY  SUNNY     62  20  20 SW10      30.16S
BEATRICE       SUNNY     63  32  31 S12       30.15F
FALLS CITY     SUNNY     62  35  36 VRB5      30.16F

...NORTHERN KANSAS...

CITY           SKY/WX    TMP DP  RH WIND       PRES   REMARKS
GOODLAND       CLOUDY    54  36  50 S25G33    30.06F
HILL CITY      SUNNY     60  31  33 SW18G26   30.15F
NORTON         SUNNY     59  27  29 S17       30.13S
PHILLIPSBURG   SUNNY     63  30  29 S12G20    30.15S
SMITH CENTER   SUNNY     61  28  29 S15G21    30.15F
HAYS           SUNNY     60  33  36 SW14G22   30.16F
RUSSELL        SUNNY     60  34  37 S14       30.15F
CONCORDIA      SUNNY     60  35  39 S9        30.17F
SALINA         SUNNY     62  35  36 S9        30.19F
TOPEKA         SUNNY     62  33  33 VRB3      30.18F



USA.gov is the U.S. government's official web portal to all federal, state and local government web resources and services.